User: anonymous
Location: Unspecified
(0.0000°N, 0.0000°E)
Time: 00:01:15
(UTC+02:00)
Language:

ARIANE DEB (SPELDA) - Orbit

View from above orbital plane
View from above orbital plane
View from above satellite
View from above satellite

Ground track
Ground track

The orbit data is extracted from the following two-line orbital elements,

1 27402U 02015D   14262.93511336  .00001588  00000-0  22859-2 0   721
2 27402 003.3933 211.8649 7107716 145.9495 345.0914 02.45735246109245
Epoch (UTC): 19 September 2014 22:26:33
Eccentricity: 0.7107716
inclination: 3.3933°
perigee height: 331 km
apogee height: 33305 km
right ascension of ascending node: 211.8649°
argument of perigee: 145.9495°
revolutions per day: 2.45735246
mean anomaly at epoch: 345.0914°
orbit number at epoch: 10924

The dashed part of the orbit path shows where the satellite is in the earth's shadow,  

DLR